Location: Codford Saint Peter
(51.1597°N, 2.0531°W)
Time: 03:24:29
(UTC+00:00)

Cosmos 1844 Rocket - Pass Details

Date: 18 September 2020
Orbit: 823 x 846 km, 71.0° (Epoch: 19 October)

Event Time Altitude Azimuth Distance (km) Brightness Sun altitude
Rises 21:22:45 0° 226° (SW) 3,352 5.9 -27.5°
Reaches altitude 10° 21:25:15 10° 232° (SW) 2,424 5.1 -27.8°
Maximum altitude 21:30:38 50° 308° (NW) 1,053 3.5 -28.4°
Drops below altitude 10° 21:36:05 10° 23° (NNE) 2,449 5.3 -29.0°
Sets 21:38:37 0° 29° (NNE) 3,390 6.1 -29.3°
